www.pogodaiklimat.ru

Погода и климат >> Архив погоды >> Россия >> Ставропольский край >> Минеральные Воды


АРХИВ ПОГОДЫ в Минеральных Водах

Время (UTC), дата Ветер
(напр.,м/с)
 
Видим.   Явления Облачность Т
(С)
Тd
(С)
f
(%)
Тe
(С)
Тes
(С)
Комфортность P
(гПа)
Po
(гПа)
Тmin
(С)
Tmax
(С)
R
(мм)
R24
(мм)
S
(см)
09 13.04 В 2 20 км 6/6 1000 м
[Cu Sc]
+19.7 +7.6 45 +21 +27 комфорт 1015.2 978.7
12 13.04 СВ 3 20 км 8/8 1000 м
[Cu Sc]
+20.1 +6.9 42 +21 +23 комфорт 1014.3 977.9 -2.6
15 13.04 СВ 3 20 км слаб. ливневой дождь 10/10 1500 м
[Cb cap]
+16.3 +10.5 69 +16 +16 тепло 1014.8 978.0 +20.9
18 13.04 В 1
{10}
10 км {ливн. осадки} ясно +12.5 +8.5 77 +13 +13 тепло 1017.2 979.8
21 13.04 З 1 10 км 4/0
[Ac trans]
+9.1 +7.5 90 +8 +8 по сезону 1017.4 979.5
00 14.04 Ю 1 4000 м дымка 10/10 300 м
[St]
+8.5 +7.5 93 +8 +8 тепло 1017.0 979.0
03 14.04 штиль 0 4000 м дымка 10/10 200 м
[St]
+10.0 +9.1 94 +9 +9 тепло 1016.2 978.5 +7.1
06 14.04 В 2 4000 м дымка 10/10 200 м
[St]
+11.6 +9.4 86 +10 +10 по сезону 1015.0 977.5
09 14.04 В 3 20 км 9/9 1000 м
[Sc]
+15.9 +10.1 68 +15 +17 тепло 1012.8 976.0
12 14.04 В 3 20 км 10/6 1000 м
[Sc Ac trans]
+18.7 +10.8 60 +19 +21 тепло 1011.1 974.7
15 14.04 СВ 3 20 км 10/5 1000 м
[Sc Ac trans Ci]
+17.2 +10.6 65 +17 +17 тепло 1010.5 974.0 +18.9
18 14.04 В 1 10 км ясно +13.8 +9.1 73 +14 +14 тепло 1009.9 972.9
21 14.04 СВ 2 10 км 10/0
[Ac trans]
+11.7 +8.4 80 +11 +11 тепло 1008.9 971.7
00 15.04 СВ 3 10 км 8/0
[Ac trans]
+9.1 +6.8 86 +7 +7 тепло 1009.0 971.4
03 15.04 СВ 3 20 км 8/0
[Ac trans]
+7.3 +5.9 91 +4 +4 по сезону 1009.2 971.3 +6.9
06 15.04 З 2 4000 м дымка 10/10 300 м
[Sc]
+9.8 +8.1 89 +8 +8 по сезону 1011.2 973.7
09 15.04 З 2 20 км 10/10 1000 м
[Sc]
+15.3 +9.8 70 +15 +15 тепло 1011.9 975.0
12 15.04 СЗ 2 20 км 10/10 1000 м
[Sc]
+15.9 +9.6 66 +16 +16 тепло 1012.6 975.8
15 15.04 ЮЗ 2 20 км 8/4 1000 м
[Sc Ac trans Ci fib]
+15.2 +9.1 67 +15 +15 тепло 1013.1 976.2 +17.0
18 15.04 штиль 0 10 км 8/0
[Ac trans Ci fib]
+10.0 +7.5 84 +9 +9 по сезону 1013.1 975.5
21 15.04 ЮЗ 2 10 км 10/0
[Ac As]
+9.3 +7.6 89 +8 +8 по сезону 1012.6 974.9
00 16.04 З 1 10 км 10/10 1000 м
[Sc]
+9.8 +8.0 89 +9 +9 тепло 1011.7 974.1
03 16.04 З 3 10 км слаб. ливневой дождь 10/10 1000 м
[Cb cap]
+10.6 +9.5 93 +8 +8 по сезону 1012.1 974.6 +8.9 1
06 16.04 З 4
{10}
20 км {ливн. осадки} 10/10 1000 м
[Sc]
+13.0 +9.3 78 +11 +11 тепло 1012.4 975.2
09 16.04 З 4
{10}
20 км {ливн. осадки} 10/10 600 м
[Cb cap]
+16.0 +7.8 58 +15 +15 тепло 1011.7 974.9
12 16.04 З 3 20 км 10/10 600 м
[Cb cap]
+16.9 +7.7 55 +17 +17 тепло 1010.9 974.2
15 16.04 СЗ 1 20 км 10/10 1000 м
[Sc diur, vesp]
+14.2 +8.3 68 +15 +15 тепло 1011.9 974.9 +17.3 0.3
18 16.04 З 1 10 км 6/6 1000 м
[Sc]
+11.4 +7.8 79 +11 +11 тепло 1012.9 975.5
21 16.04 ЮЗ 2 10 км 10/0
[Ac lent]
+10.3 +7.6 83 +9 +9 тепло 1012.3 984.8
00 17.04 ЮЗ 3 10 км 10/10 1000 м
[Sc]
+10.1 +7.3 83 +8 +8 тепло 1011.2 973.7
03 17.04 З 1 10 км 10/0
[Ac lent]
+8.6 +6.4 86 +8 +8 по сезону 1010.4 972.7 +8.6
06 17.04 З 3 10 км 10/10 600 м
[Sc]
+12.6 +7.0 69 +11 +11 тепло 1009.9 972.7 +8.3
09 17.04 З 3 20 км 10/10 1000 м
[Sc]
+14.1 +7.3 64 +13 +13 по сезону 1009.0 972.1
12 17.04 З 2 20 км 10/10 1000 м
[Cb cap]
+14.1 +7.5 64 +14 +14 по сезону 1009.2 972.3
15 17.04 С 3 4000 м слаб. ливневой дождь 10/10 300 м
[Cb cap]
+8.4 +6.9 90 +6 +6 холодно 1012.0 974.2 +15.2 1
18 17.04 С 1 4000 м слаб. ливневой дождь 10/10 300 м
[Cb cap]
+5.7 +4.6 93 +4 +4 прохладно 1015.9 977.6
21 17.04 С 2 4000 м слаб. ливневой дождь 10/10 300 м
[Cb cap]
+4.4 +3.2 92 +2 +2 прохладно 1017.7 979.3
00 18.04 СВ 2 4000 м слаб. ливневой дождь 10/10 300 м
[Cb cap]
+1.8 +0.9 94 -2 -2 холодно 1019.6 980.6
03 18.04 С 1 4000 м слаб. ливневой снег 10/10 300 м
[Cb cap]
-0.2 -0.9 95 -2 -2 очень
холодно
1021.7 982.3 -0.2 6
06 18.04 СВ 1 2000 м слаб. ливневой снег 10/10 300 м
[Cb cap]
+0.4 -0.4 94 -2 -2 очень
холодно
1022.9 983.6 -0.3
09 18.04 СВ 1 10 км слаб. ливневой дождь 10/10 300 м
[Cb cap]
+2.2 +0.4 88 +1 +1 очень
холодно
1023.1 984.0
12 18.04 ЮВ 1 10 км слаб. ливневой дождь 10/10 600 м
[Cb cap]
+3.8 +1.7 86 +2 +2 очень
холодно
1023.0 984.1
15 18.04 ЮВ 1 20 км {ливн. осадки} 10/10 1000 м
[Sc diur, vesp]
+4.9 +1.6 79 +4 +4 очень
холодно
1022.5 983.8 +5.3 4
18 18.04 ЮВ 2 10 км {ливн. осадки} 10/10 300 м
[Sc]
+3.7 +0.5 80 +1 +1 холодно 1023.5 984.6
21 18.04 В 2 10 км 10/5 300 м
[Sc Ac trans]
+3.2 +0.8 84 0 0 холодно 1023.0 984.1
00 19.04 В 2 10 км 10/0
[Ac trans]
+2.9 -0.5 78 0 0 прохладно 1021.8 982.8
03 19.04 В 2 10 км слаб. ливневой дождь 10/10 600 м
[Cb cap]
+2.7 -0.4 80 -0 -0 холодно 1021.7 982.7 +2.6
06 19.04 СВ 4 20 км {ливн. осадки} 10/10 1000 м
[Sc]
+4.3 -2.3 62 0 0 очень
холодно
1021.6 982.8 +2.4
09 19.04 В 5
{10}
20 км 10/10 1000 м
[Sc]
+5.2 0.0 69 +1 +1 очень
холодно
1021.3 982.7
12 19.04 В 5
{10}
20 км 10/10 600 м
[Sc]
+5.2 +0.3 71 +1 +1 очень
холодно
1021.3 982.5
15 19.04 В 3
{11}
20 км 10/10 600 м
[Sc]
+5.6 +0.5 70 +3 +3 очень
холодно
1021.3 982.8 +5.9
18 19.04 В 4 10 км 10/10 600 м
[Sc]
+5.1 -0.2 69 +1 +1 очень
холодно
1022.4 983.7
21 19.04 В 6-11
{11}
10 км 10/10 600 м
[Sc]
+3.8 +0.8 81 -2 -2 очень
холодно
1021.9 983.1
00 20.04 В 3
{11}
10 км 10/10 600 м
[Sc]
+3.2 +0.5 82 -1 -1 холодно 1021.7 982.8
03 20.04 В 3 4000 м дымка 10/8 300 м
[Sc Ac inh]
+1.6 +0.1 90 -3 -3 очень
холодно
1022.3 983.1 +1.5
06 20.04 В 4-10
{10}
20 км 10/10 600 м
[Sc]
+4.2 -0.9 69 0 0 очень
холодно
1022.6 983.8

 

Местоположение метеостанции Минеральные Воды (Ставропольский край, Россия): широта 44.22 долгота 43.10 высота над уровнем моря 313 м.

В архиве по умолчанию представлена погода в Минеральных Водах за последнюю неделю. Архивные данные за месяц целиком и за предыдущие месяцы, начиная с января 2011 года, Вы можете получить, выбрав интересующий диапазон дат из раскрывающегося списка и нажав кнопку "Ввод!".


*Определитесь, кто Вы:
робот инопланетянин человек

Внимание! Время в таблицах - всемирное. Для получения местного времени необходимо прибавить поправку, которая равна 3 ч.

Смотрите также архив погоды в соседних городах и на ближайших метеорологических станциях:

Погода в Георгиевске (Ставропольский край, Россия) (30 км)
Погода в Кисловодске (Ставропольский край, Россия) (47 км)
Погода в Александровском (Ставропольский край, Россия) (56 км)
Погода в Шаджатмазе (Карачаево-Черкессия, Россия) (64 км)
Погода в Зеленокумске (Ставропольский край, Россия) (66 км)
Погода в Черкесске (Карачаево-Черкессия, Россия) (82 км)
Погода в Нальчике (Кабардино-Балкария, Россия) (88 км)
Погода в Прохладный (Кабардино-Балкария, Россия) (92 км)
Погода в Тырныаузе (Кабардино-Балкария, Россия) (95 км)
Погода в Невинномысске (Ставропольский край, Россия) (101 км)

Пояснения к столбцам:

Ветер - указаны скорость ветра в м/с - средняя за 10 мин, порывы в срок и между сроками (в фигурных скобках) и направление, откуда дует ветер: С - северный, СВ - северо-восточный, В - восточный, ЮВ - юго-восточный, Ю - южный, ЮЗ - юго-западный, З - западный, СЗ - северо-западный.
Видимость - горизонтальная дальность видимости в метрах или километрах. При видимости от 1 до 10 км при отсутствии осадков обычно наблюдается дымка, при ухудшении видимости до 1 км и менее - туман. В сухую погоду видимость может ухудшаться дымом, пылью или мглою.
Явления - указаны атмосферные явления, наблюдавшиеся в срок или в последний час перед сроком; фигурными скобками обозначены явления, наблюдавшиеся между сроками (за 1-3 часа до срока); квадратными скобками обозначены град или гололедные отложения с указанием их диаметра в мм.
Облачность - указаны через наклонную черту общая и нижняя облачность в баллах и высота нижней границы облаков в метрах; квадратными скобками обозначены формы облаков: Ci - перистые, Cs - перисто-слоистые, Cc - перисто-кучевые, Ac - высококучевые, As - высокослоистые, Sc - слоисто-кучевые, Ns - слоисто-дождевые, Cu - кучевые, Cb - кучево-дождевые. Подробнее классификацию облаков см. в Атласе облаков (PDF).
T - Температура воздуха - температура, измеренная на высоте 2 м над землей.
Td - Температура точки росы - температура, при понижении до которой содержащийся в воздухе водяной пар достигнет насыщения.
f - Относительная влажность воздуха - влажноcть воздуха, измеренная на высоте 2 м над землей.
Te - Эффективная температура - температура, которую ощущает одетый по сезону человек в тени. Характеристика душности погоды. При расчете учитывается влияние влажности воздуха и скорости ветра на теплоощущения человека.
Tes - Эффективная температура на солнце - температура, которую ощущает человек, с поправкой на солнечный нагрев. Характеристика знойности погоды. Зависит от высоты солнца над горизонтом, облачности и скорости ветра. Ночью, в пасмурную погоду, а также при ветре 12 м/с и более поправка равна нулю.
P - Атмосферное давление - приведенное к уровню моря атмосферное давление.
Po - Атмосферное давление - измеренное на уровне метеостанции атмосферное давление.
Tmin - Минимальная температура - минимум температуры воздуха на высоте 2 м над землей.
Tmax - Максимальная температура - максимум температуры воздуха на высоте 2 м над землей.
R - Количество осадков - Количество выпавших осадков за период времени, мм. При наведении курсора мыши на число - период времени, за который выпало указанное количество осадков.
R24 - Количество осадков - Количество выпавших осадков за 24 часа, мм.
S - Снежный покров - Высота снежного покрова, см. При наведении курсора мыши на число - состояние снежного покрова и степень покрытия местности в баллах.